Voltar ao catálogo

STARLINK-34236

AtivoComunicaçõesVLEO
NORAD 64743·PAYLOAD·🇺🇸 United States

Lançado Jul 2, 2025 de Cape Canaveral Space Force Station

Loading…

Próximas Passagens (próximas 24 horas)

TLE

AtualizadoSource: CelesTrak SupGP

Época: Sep 14, 2026, 20:58 UTC

1 64743C 25144V   26257.87409722  .00027571  00000+0  81470-3 0  2572
2 64743  53.1600  19.8180 0001178  71.6246 222.8150 15.34373140    13

Acompanhe STARLINK-34236 em tempo real com AllMySat

Download on the App Store